Weather History for KD57 - June, 2014

Change the Weather History Date:

Thursday, June 5, 2014

  Actual Average (KDIK) Record (KDIK)
Temperature  
Mean Temperature 64 °F 59 °F  
Max Temperature 78 °F 72 °F 98 °F (1900)
Min Temperature 50 °F 47 °F 30 °F (1907)
Degree Days  
Heating Degree Days 1 7  
Month to date heating degree days 36  
Since 1 June heating degree days 36  
Since 1 July heating degree days 8476  
Cooling Degree Days 0 1  
Month to date cooling degree days 5  
Year to date cooling degree days 15  
Since 1 June cooling degree days 5  
Growing Degree Days 14 (Base 50)    
Moisture  
Dew Point 49 °F    
Average Humidity 61    
Maximum Humidity 94    
Minimum Humidity 28    
Precipitation  
Precipitation 0.00 in 0.10 in 2.04 in (1941)
Month to date precipitation 0.50  
Year to date precipitation 5.61  
Sea Level Pressure  
Sea Level Pressure 29.84 in    
Wind  
Wind Speed 7 mph (WNW)    
Max Wind Speed 20 mph    
Max Gust Speed 50 mph    
Visibility 10 miles    
Events      
T = Trace of Precipitation, MM = Missing Value Source: NWS Daily Summary

Daily Weather History Graph

Daily Weather History Graph

Search for Another Location

Airport or City:

Trip Planner

Search our weather history database for the weather conditions in past years. The results will help you decide how hot, cold, wet, or windy it might be!

Date:

Astronomy

Jun. 05, 2014 Rise Set
Actual Time 4:54 AM MDT 8:37 PM MDT
Civil Twilight 4:16 AM MDT 9:16 PM MDT
Nautical Twilight 3:24 AM MDT 10:08 PM MDT
Astronomical Twilight 2:11 AM MDT 11:22 PM MDT
Moon 12:34 PM MDT (6/5) 12:46 AM MDT (6/5)
Length of Visible Light 17h 00m
Length of Day
15h 42m
Waxing Crescent, 49% of the Moon is Illuminated
Jun 5
Waxing Crescent
Jun 5
First Quarter
Jun 12
Full
Jun 19
Last Quarter
Jun 27
New

Hourly Weather History & Observations

Time (MDT) Temp. Dew Point Humidity Pressure Visibility Wind Dir Wind Speed Gust Speed Precip Events Conditions
12:15 AM 57.2 °F 51.8 °F 82% 29.82 in 10.0 mi WNW 3.5 mph - N/A   Clear
12:35 AM 57.2 °F 51.8 °F 82% 29.82 in 10.0 mi Variable 4.6 mph - N/A   Clear
12:55 AM 57.2 °F 51.8 °F 82% 29.82 in 10.0 mi SW 8.1 mph - N/A   Clear
1:15 AM 57.2 °F 50.0 °F 77% 29.82 in 10.0 mi SSW 6.9 mph - N/A   Scattered Clouds
1:35 AM 57.2 °F 51.8 °F 82% 29.82 in 10.0 mi WSW 4.6 mph - N/A   Mostly Cloudy
1:55 AM 57.2 °F 51.8 °F 82% 29.81 in 10.0 mi West 9.2 mph - N/A   Mostly Cloudy
2:15 AM 55.4 °F 51.8 °F 88% 29.81 in 10.0 mi West 9.2 mph - N/A   Mostly Cloudy
2:35 AM 57.2 °F 51.8 °F 82% 29.81 in 10.0 mi West 8.1 mph - N/A   Overcast
2:55 AM 55.4 °F 50.0 °F 82% 29.81 in 10.0 mi West 8.1 mph - N/A   Mostly Cloudy
3:15 AM 55.4 °F 50.0 °F 82% 29.81 in 10.0 mi West 8.1 mph - N/A   Clear
3:35 AM 53.6 °F 50.0 °F 88% 29.80 in 10.0 mi West 8.1 mph - N/A   Clear
3:55 AM 51.8 °F 48.2 °F 88% 29.81 in 10.0 mi WSW 12.7 mph - N/A   Clear
4:15 AM 51.8 °F 48.2 °F 88% 29.81 in 10.0 mi West 3.5 mph - N/A   Clear
4:35 AM 51.8 °F 48.2 °F 88% 29.82 in 10.0 mi WSW 6.9 mph - N/A   Clear
4:55 AM 51.8 °F 48.2 °F 88% 29.82 in 10.0 mi WSW 5.8 mph - N/A   Clear
5:15 AM 50.0 °F 48.2 °F 94% 29.82 in 10.0 mi Calm Calm - N/A   Clear
5:35 AM 50.0 °F 46.4 °F 87% 29.82 in 10.0 mi Calm Calm - N/A   Clear
5:55 AM 51.8 °F 48.2 °F 88% 29.82 in 10.0 mi Calm Calm - N/A   Clear
6:15 AM 53.6 °F 48.2 °F 82% 29.82 in 10.0 mi Calm Calm - N/A   Clear
6:35 AM 55.4 °F 50.0 °F 82% 29.82 in 10.0 mi Calm Calm - N/A   Clear
6:55 AM 57.2 °F 51.8 °F 82% 29.82 in 10.0 mi WNW 8.1 mph - N/A   Clear
7:15 AM 59.0 °F 50.0 °F 72% 29.82 in 10.0 mi WNW 11.5 mph - N/A   Clear
7:35 AM 62.6 °F 50.0 °F 63% 29.82 in 10.0 mi WNW 10.4 mph - N/A   Clear
7:55 AM 64.4 °F 50.0 °F 59% 29.82 in 10.0 mi NW 13.8 mph - N/A   Clear
8:15 AM 66.2 °F 50.0 °F 56% 29.82 in 10.0 mi NW 9.2 mph - N/A   Clear
8:35 AM 66.2 °F 50.0 °F 56% 29.82 in 10.0 mi NW 12.7 mph - N/A   Clear
8:55 AM 68.0 °F 50.0 °F 52% 29.82 in 10.0 mi NW 11.5 mph - N/A   Clear
9:15 AM 68.0 °F 50.0 °F 52% 29.83 in 10.0 mi NW 9.2 mph - N/A   Clear
9:35 AM 69.8 °F 50.0 °F 49% 29.83 in 10.0 mi NW 8.1 mph - N/A   Clear
9:55 AM 69.8 °F 48.2 °F 46% 29.83 in 10.0 mi North 8.1 mph - N/A   Clear
10:15 AM 69.8 °F 48.2 °F 46% 29.84 in 10.0 mi NW 11.5 mph - N/A   Clear
10:35 AM 71.6 °F 48.2 °F 43% 29.84 in 10.0 mi NW 6.9 mph 15.0 mph N/A   Clear
10:55 AM 71.6 °F 48.2 °F 43% 29.84 in 10.0 mi NW 8.1 mph 16.1 mph N/A   Clear
11:15 AM 71.6 °F 48.2 °F 43% 29.84 in 10.0 mi NW 8.1 mph 16.1 mph N/A   Clear
11:35 AM 73.4 °F 48.2 °F 41% 29.84 in 10.0 mi NNW 6.9 mph 15.0 mph N/A   Clear
11:55 AM 73.4 °F 50.0 °F 44% 29.84 in 10.0 mi NW 12.7 mph - N/A   Clear
12:15 PM 73.4 °F 46.4 °F 38% 29.84 in 10.0 mi West 5.8 mph 12.7 mph N/A   Clear
12:35 PM 75.2 °F 48.2 °F 38% 29.84 in 10.0 mi West 9.2 mph - N/A   Partly Cloudy
12:55 PM 73.4 °F 46.4 °F 38% 29.84 in 10.0 mi Variable 4.6 mph - N/A   Partly Cloudy
1:15 PM 75.2 °F 46.4 °F 36% 29.84 in 10.0 mi West 8.1 mph - N/A   Scattered Clouds
1:35 PM 77.0 °F 44.6 °F 32% 29.83 in 10.0 mi NW 11.5 mph - N/A   Partly Cloudy
1:55 PM 77.0 °F 46.4 °F 34% 29.83 in 10.0 mi NNW 9.2 mph - N/A   Partly Cloudy
2:15 PM 77.0 °F 46.4 °F 34% 29.83 in 10.0 mi WNW 5.8 mph 11.5 mph N/A   Scattered Clouds
2:35 PM 75.2 °F 46.4 °F 36% 29.83 in 10.0 mi WNW 9.2 mph 15.0 mph N/A   Mostly Cloudy
2:55 PM 77.0 °F 48.2 °F 36% 29.81 in 10.0 mi Variable 5.8 mph 13.8 mph N/A   Partly Cloudy
3:15 PM 77.0 °F 46.4 °F 34% 29.81 in 10.0 mi West 6.9 mph 15.0 mph N/A   Clear
3:35 PM 77.0 °F 44.6 °F 32% 29.80 in 10.0 mi West 11.5 mph - N/A   Partly Cloudy
3:55 PM 78.8 °F 44.6 °F 30% 29.79 in 10.0 mi West 12.7 mph 20.7 mph N/A   Scattered Clouds
4:15 PM 78.8 °F 44.6 °F 30% 29.79 in 10.0 mi WSW 10.4 mph - N/A   Scattered Clouds
4:35 PM 78.8 °F 42.8 °F 28% 29.78 in 10.0 mi WSW 12.7 mph - N/A   Partly Cloudy
4:55 PM 78.8 °F 42.8 °F 28% 29.79 in 10.0 mi WSW 16.1 mph 21.9 mph N/A   Partly Cloudy
5:15 PM 69.8 °F 48.2 °F 46% 29.83 in 10.0 mi WNW 19.6 mph 49.5 mph N/A   Mostly Cloudy
5:35 PM 64.4 °F 53.6 °F 68% 29.82 in 3.0 mi Variable 6.9 mph 29.9 mph N/A   Light Drizzle
5:55 PM 69.8 °F 53.6 °F 56% 29.82 in 10.0 mi NNW 5.8 mph - N/A   Clear
6:15 PM 69.8 °F 53.6 °F 56% 29.82 in 10.0 mi Calm Calm - N/A   Mostly Cloudy
6:35 PM 71.6 °F 53.6 °F 53% 29.83 in 10.0 mi Calm Calm - N/A   Mostly Cloudy
6:55 PM 69.8 °F 50.0 °F 49% 29.85 in 10.0 mi NNW 18.4 mph - N/A   Partly Cloudy
7:15 PM 68.0 °F 51.8 °F 56% 29.86 in 10.0 mi North 11.5 mph 19.6 mph N/A   Clear
7:35 PM 68.0 °F 51.8 °F 56% 29.87 in 10.0 mi NNW 11.5 mph - N/A   Clear
7:55 PM 66.2 °F 51.8 °F 60% 29.87 in 10.0 mi NNW 8.1 mph - N/A   Clear
8:15 PM 64.4 °F 51.8 °F 64% 29.88 in 10.0 mi NNW 8.1 mph - N/A   Clear
8:35 PM 62.6 °F 51.8 °F 68% 29.89 in 10.0 mi NNW 9.2 mph - N/A   Clear
8:55 PM 60.8 °F 51.8 °F 72% 29.90 in 10.0 mi North 6.9 mph - N/A   Clear
9:15 PM 59.0 °F 51.8 °F 77% 29.91 in 10.0 mi NNW 6.9 mph - N/A   Clear
9:35 PM 60.8 °F 51.8 °F 72% 29.92 in 10.0 mi North 10.4 mph - N/A   Clear
9:55 PM 59.0 °F 51.8 °F 77% 29.93 in 10.0 mi North 8.1 mph - N/A   Clear
10:15 PM 59.0 °F 50.0 °F 72% 29.94 in 10.0 mi North 5.8 mph 11.5 mph N/A   Clear
10:35 PM 57.2 °F 50.0 °F 77% 29.94 in 10.0 mi North 9.2 mph - N/A   Clear
10:55 PM 57.2 °F 48.2 °F 72% 29.96 in 10.0 mi NW 8.1 mph - N/A   Clear
11:15 PM 55.4 °F 46.4 °F 72% 29.97 in 10.0 mi NW 8.1 mph - N/A   Clear
11:35 PM 55.4 °F 46.4 °F 72% 29.98 in 10.0 mi NNW 10.4 mph - N/A   Clear
11:55 PM 51.8 °F 46.4 °F 82% 29.99 in 10.0 mi WNW 6.9 mph - N/A   Clear